Location: Unspecified
(43.4680°N, 87.1740°E)
Time: 20:39:48
(UTC+00:00)

Cosmos 2278 Rocket - Pass Details

Date: 17 April 2021
Orbit: 842 x 844 km, 71.0° (Epoch: 11 May)

Event Time Altitude Azimuth Distance (km) Brightness Sun altitude
Exits shadow 19:25:30 25° 88° (E) 1,627 3.8 -33.2°
Drops below altitude 10° 19:29:17 10° 48° (NE) 2,469 5.3 -32.9°
Sets 19:32:04 0° 36° (NE) 3,409 6.4 -32.7°
